Time,TemperatureF,DewpointF,PressureIn,WindDirection,WindDirectionDegrees,WindSpeedMPH,WindSpeedGustMPH,Humidity,HourlyPrecipIn,Conditions,Clouds,dailyrainin,SoftwareType,DateUTC
2013-02-07 00:00:00,37.6,28.4,29.98,North,-999,-999.0,0.0,69,0.00,,---,0.00,VWS V14.01,2013-02-07 05:00:00,
2013-02-07 00:02:00,37.8,28.6,29.98,North,-999,-999.0,0.0,69,0.00,,---,0.00,VWS V14.01,2013-02-07 05:02:00,
2013-02-07 00:04:00,37.8,28.6,29.98,North,-999,-999.0,0.0,69,0.00,,---,0.48,VWS V14.01,2013-02-07 05:04:00,
2013-02-07 00:10:00,37.8,28.6,29.98,North,-999,-999.0,0.0,69,0.00,,---,0.00,VWS V14.01,2013-02-07 05:10:00,
2013-02-07 00:15:00,37.6,28.7,29.98,North,-999,-999.0,0.0,70,0.00,,---,0.00,VWS V14.01,2013-02-07 05:15:00,
2013-02-07 00:20:00,37.4,28.5,29.99,North,-999,-999.0,0.0,70,0.00,,---,0.00,VWS V14.01,2013-02-07 05:20:00,
2013-02-07 00:25:00,37.4,28.5,29.99,North,-999,-999.0,0.0,70,0.00,,---,0.00,VWS V14.01,2013-02-07 05:25:00,
2013-02-07 00:30:00,37.3,28.4,29.99,North,-999,-999.0,0.0,70,0.00,,---,0.00,VWS V14.01,2013-02-07 05:30:00,
2013-02-07 00:35:00,37.1,28.2,29.99,North,-999,-999.0,0.0,70,0.00,,---,0.00,VWS V14.01,2013-02-07 05:35:00,
2013-02-07 00:40:00,37.1,28.2,29.99,North,-999,-999.0,0.0,70,0.00,,---,0.00,VWS V14.01,2013-02-07 05:40:00,
2013-02-07 00:45:00,37.1,28.6,29.99,North,-999,-999.0,0.0,71,0.00,,---,0.00,VWS V14.01,2013-02-07 05:45:00,
2013-02-07 00:50:00,37.1,28.6,30.00,North,-999,-999.0,0.0,71,0.00,,---,0.00,VWS V14.01,2013-02-07 05:50:00,
2013-02-07 00:55:00,37.1,28.6,30.00,North,-999,-999.0,0.0,71,0.00,,---,0.00,VWS V14.01,2013-02-07 05:55:00,
2013-02-07 01:00:00,37.1,28.6,30.00,North,-999,-999.0,0.0,71,0.00,,---,0.00,VWS V14.01,2013-02-07 06:00:00,
2013-02-07 01:06:00,37.1,28.6,30.00,North,-999,-999.0,0.0,71,0.00,,---,0.00,VWS V14.01,2013-02-07 06:06:00,
2013-02-07 01:11:00,37.1,28.6,30.00,North,-999,-999.0,0.0,71,0.00,,---,0.00,VWS V14.01,2013-02-07 06:11:00,
2013-02-07 01:16:00,36.9,28.4,30.00,North,-999,-999.0,0.0,71,0.00,,---,0.00,VWS V14.01,2013-02-07 06:16:00,
2013-02-07 01:21:00,36.9,28.4,30.00,North,-999,-999.0,0.0,71,0.00,,---,0.00,VWS V14.01,2013-02-07 06:21:00,
2013-02-07 01:26:00,36.9,28.4,30.00,North,-999,-999.0,0.0,71,0.00,,---,0.00,VWS V14.01,2013-02-07 06:26:00,
2013-02-07 01:31:00,36.7,28.5,29.99,North,-999,-999.0,0.0,72,0.00,,---,0.00,VWS V14.01,2013-02-07 06:31:00,
2013-02-07 01:36:00,36.7,28.5,30.00,North,-999,-999.0,0.0,72,0.00,,---,0.00,VWS V14.01,2013-02-07 06:36:00,
2013-02-07 01:41:00,36.7,28.5,30.00,North,-999,-999.0,0.0,72,0.00,,---,0.00,VWS V14.01,2013-02-07 06:41:00,
2013-02-07 01:46:00,36.5,28.4,30.00,North,-999,-999.0,0.0,72,0.00,,---,0.00,VWS V14.01,2013-02-07 06:46:00,
2013-02-07 01:51:00,36.4,28.6,30.00,North,-999,-999.0,0.0,73,0.00,,---,0.00,VWS V14.01,2013-02-07 06:51:00,
2013-02-07 01:56:00,36.4,28.6,30.01,North,-999,-999.0,0.0,73,0.00,,---,0.00,VWS V14.01,2013-02-07 06:56:00,
2013-02-07 02:02:00,36.4,28.6,30.01,North,-999,-999.0,0.0,73,0.00,,---,0.00,VWS V14.01,2013-02-07 07:02:00,
2013-02-07 02:07:00,36.4,28.6,30.01,North,-999,-999.0,0.0,73,0.00,,---,0.00,VWS V14.01,2013-02-07 07:07:00,
2013-02-07 02:12:00,36.4,28.6,30.01,North,-999,-999.0,0.0,73,0.00,,---,0.00,VWS V14.01,2013-02-07 07:12:00,
2013-02-07 02:17:00,36.4,28.6,30.01,North,-999,-999.0,0.0,73,0.00,,---,0.00,VWS V14.01,2013-02-07 07:17:00,
2013-02-07 02:22:00,36.2,28.7,30.01,North,-999,-999.0,0.0,74,0.00,,---,0.00,VWS V14.01,2013-02-07 07:22:00,
2013-02-07 02:27:00,36.2,28.7,30.01,North,-999,-999.0,0.0,74,0.00,,---,0.00,VWS V14.01,2013-02-07 07:27:00,
2013-02-07 02:32:00,36.0,28.5,30.00,North,-999,-999.0,0.0,74,0.00,,---,0.00,VWS V14.01,2013-02-07 07:32:00,
2013-02-07 02:37:00,36.0,28.5,30.00,North,-999,-999.0,0.0,74,0.00,,---,0.00,VWS V14.01,2013-02-07 07:37:00,
2013-02-07 02:42:00,36.0,28.5,30.00,North,-999,-999.0,0.0,74,0.00,,---,0.00,VWS V14.01,2013-02-07 07:42:00,
2013-02-07 02:47:00,36.0,28.5,30.00,North,-999,-999.0,0.0,74,0.00,,---,0.00,VWS V14.01,2013-02-07 07:47:00,
2013-02-07 02:52:00,36.0,28.5,30.00,North,-999,-999.0,0.0,74,0.00,,---,0.00,VWS V14.01,2013-02-07 07:52:00,
2013-02-07 02:57:00,35.8,28.3,30.00,North,-999,-999.0,0.0,74,0.00,,---,0.00,VWS V14.01,2013-02-07 07:57:00,
2013-02-07 03:03:00,36.0,28.9,30.00,North,-999,-999.0,0.0,75,0.00,,---,0.00,VWS V14.01,2013-02-07 08:03:00,
2013-02-07 03:08:00,36.2,29.0,30.00,North,-999,-999.0,0.0,75,0.00,,---,0.00,VWS V14.01,2013-02-07 08:08:00,
2013-02-07 03:13:00,36.4,29.2,30.00,North,-999,-999.0,0.0,75,0.00,,---,0.00,VWS V14.01,2013-02-07 08:13:00,
2013-02-07 03:18:00,36.5,29.7,30.00,North,-999,-999.0,0.0,76,0.00,,---,0.00,VWS V14.01,2013-02-07 08:18:00,
2013-02-07 03:23:00,36.9,30.0,30.00,North,-999,-999.0,0.0,76,0.00,,---,0.00,VWS V14.01,2013-02-07 08:23:00,
2013-02-07 03:28:00,37.3,30.4,30.00,North,-999,-999.0,0.0,76,0.00,,---,0.00,VWS V14.01,2013-02-07 08:28:00,
2013-02-07 03:33:00,37.8,30.9,30.00,North,-999,-999.0,0.0,76,0.00,,---,0.00,VWS V14.01,2013-02-07 08:33:00,
2013-02-07 03:38:00,38.0,30.8,30.00,North,-999,-999.0,0.0,75,0.00,,---,0.00,VWS V14.01,2013-02-07 08:38:00,
2013-02-07 03:43:00,38.5,31.0,30.00,North,-999,-999.0,0.0,74,0.00,,---,0.00,VWS V14.01,2013-02-07 08:43:00,
2013-02-07 03:48:00,38.5,31.0,30.00,North,-999,-999.0,0.0,74,0.00,,---,0.00,VWS V14.01,2013-02-07 08:48:00,
2013-02-07 03:53:00,39.2,31.0,30.01,North,-999,-999.0,0.0,72,0.00,,---,0.00,VWS V14.01,2013-02-07 08:53:00,
2013-02-07 03:58:00,39.6,31.3,30.01,North,-999,-999.0,0.0,72,0.00,,---,0.00,VWS V14.01,2013-02-07 08:58:00,
2013-02-07 04:04:00,39.8,31.2,30.02,North,-999,-999.0,0.0,71,0.00,,---,0.00,VWS V14.01,2013-02-07 09:04:00,
2013-02-07 04:09:00,40.0,31.4,30.02,North,-999,-999.0,0.0,71,0.00,,---,0.00,VWS V14.01,2013-02-07 09:09:00,
2013-02-07 04:14:00,40.3,31.7,30.02,North,-999,-999.0,0.0,71,0.00,,---,0.00,VWS V14.01,2013-02-07 09:14:00,
2013-02-07 04:19:00,40.7,31.7,30.03,North,-999,-999.0,0.0,70,0.00,,---,0.00,VWS V14.01,2013-02-07 09:19:00,
2013-02-07 04:24:00,40.9,31.2,30.03,North,-999,-999.0,0.0,68,0.00,,---,0.00,VWS V14.01,2013-02-07 09:24:00,
2013-02-07 04:29:00,41.0,31.3,30.03,North,-999,-999.0,0.0,68,0.00,,---,0.00,VWS V14.01,2013-02-07 09:29:00,
2013-02-07 04:34:00,41.4,31.3,30.03,North,-999,-999.0,0.0,67,0.00,,---,0.00,VWS V14.01,2013-02-07 09:34:00,
2013-02-07 04:39:00,41.4,31.3,30.03,North,-999,-999.0,0.0,67,0.00,,---,0.00,VWS V14.01,2013-02-07 09:39:00,
2013-02-07 04:44:00,41.6,31.1,30.03,North,-999,-999.0,0.0,66,0.00,,---,0.00,VWS V14.01,2013-02-07 09:44:00,
2013-02-07 04:50:00,41.8,30.9,30.03,North,-999,-999.0,0.0,65,0.00,,---,0.00,VWS V14.01,2013-02-07 09:50:00,
2013-02-07 04:55:00,41.9,30.6,30.03,North,-999,-999.0,0.0,64,0.00,,---,0.00,VWS V14.01,2013-02-07 09:55:00,
2013-02-07 05:01:00,42.3,30.2,30.03,North,-999,-999.0,0.0,62,0.00,,---,0.00,VWS V14.01,2013-02-07 10:01:00,
2013-02-07 05:06:00,42.7,30.6,30.03,North,-999,-999.0,0.0,62,0.00,,---,0.00,VWS V14.01,2013-02-07 10:06:00,
2013-02-07 05:11:00,42.8,30.3,30.03,North,-999,-999.0,0.0,61,0.00,,---,0.00,VWS V14.01,2013-02-07 10:11:00,
2013-02-07 05:16:00,43.0,30.1,30.03,North,-999,-999.0,0.0,60,0.00,,---,0.00,VWS V14.01,2013-02-07 10:16:00,
2013-02-07 05:21:00,43.2,30.3,30.03,North,-999,-999.0,0.0,60,0.00,,---,0.00,VWS V14.01,2013-02-07 10:21:00,
2013-02-07 05:26:00,43.2,29.9,30.03,North,-999,-999.0,0.0,59,0.00,,---,0.00,VWS V14.01,2013-02-07 10:26:00,
2013-02-07 05:31:00,43.4,29.6,30.03,North,-999,-999.0,0.0,58,0.00,,---,0.00,VWS V14.01,2013-02-07 10:31:00,
2013-02-07 05:36:00,43.4,29.6,30.03,North,-999,-999.0,0.0,58,0.00,,---,0.00,VWS V14.01,2013-02-07 10:36:00,
2013-02-07 05:41:00,43.6,29.4,30.03,North,-999,-999.0,0.0,57,0.00,,---,0.00,VWS V14.01,2013-02-07 10:41:00,
2013-02-07 05:46:00,43.6,29.4,30.02,North,-999,-999.0,0.0,57,0.00,,---,0.00,VWS V14.01,2013-02-07 10:46:00,
2013-02-07 05:51:00,43.9,29.2,30.02,North,-999,-999.0,0.0,56,0.00,,---,0.00,VWS V14.01,2013-02-07 10:51:00,
2013-02-07 05:56:00,44.1,28.5,30.03,North,-999,-999.0,0.0,54,0.00,,---,0.00,VWS V14.01,2013-02-07 10:56:00,
2013-02-07 06:02:00,44.3,29.2,30.02,North,-999,-999.0,0.0,55,0.00,,---,0.00,VWS V14.01,2013-02-07 11:02:00,
2013-02-07 06:07:00,44.3,29.2,30.02,North,-999,-999.0,0.0,55,0.00,,---,0.00,VWS V14.01,2013-02-07 11:07:00,
2013-02-07 06:12:00,44.3,29.2,30.03,North,-999,-999.0,0.0,55,0.00,,---,0.00,VWS V14.01,2013-02-07 11:12:00,
2013-02-07 06:17:00,44.5,28.9,30.03,North,-999,-999.0,0.0,54,0.00,,---,0.00,VWS V14.01,2013-02-07 11:17:00,
2013-02-07 06:22:00,44.5,29.4,30.03,North,-999,-999.0,0.0,55,0.00,,---,0.00,VWS V14.01,2013-02-07 11:22:00,
2013-02-07 06:27:00,44.6,29.0,30.02,North,-999,-999.0,0.0,54,0.00,,---,0.00,VWS V14.01,2013-02-07 11:27:00,
2013-02-07 06:33:00,44.8,28.7,30.02,North,-999,-999.0,0.0,53,0.00,,---,0.00,VWS V14.01,2013-02-07 11:33:00,
2013-02-07 06:38:00,45.0,29.4,30.02,North,-999,-999.0,0.0,54,0.00,,---,0.00,VWS V14.01,2013-02-07 11:38:00,
2013-02-07 06:43:00,45.0,29.4,30.02,North,-999,-999.0,0.0,54,0.00,,---,0.00,VWS V14.01,2013-02-07 11:43:00,
2013-02-07 06:48:00,45.2,29.6,30.02,North,-999,-999.0,0.0,54,0.00,,---,0.00,VWS V14.01,2013-02-07 11:48:00,
2013-02-07 06:53:00,45.4,29.3,30.03,North,-999,-999.0,0.0,53,0.00,,---,0.00,VWS V14.01,2013-02-07 11:53:00,
2013-02-07 06:58:00,45.5,29.4,30.03,North,-999,-999.0,0.0,53,0.00,,---,0.00,VWS V14.01,2013-02-07 11:58:00,
2013-02-07 07:04:00,45.5,29.4,30.03,North,-999,-999.0,0.0,53,0.00,,---,0.00,VWS V14.01,2013-02-07 12:04:00,
2013-02-07 07:09:00,45.7,29.1,30.03,North,-999,-999.0,0.0,52,0.00,,---,0.00,VWS V14.01,2013-02-07 12:09:00,
2013-02-07 07:14:00,45.9,29.3,30.03,North,-999,-999.0,0.0,52,0.00,,---,0.00,VWS V14.01,2013-02-07 12:14:00,
2013-02-07 07:19:00,45.9,29.3,30.03,North,-999,-999.0,0.0,52,0.00,,---,0.00,VWS V14.01,2013-02-07 12:19:00,
2013-02-07 07:24:00,45.9,29.3,30.03,North,-999,-999.0,0.0,52,0.00,,---,0.00,VWS V14.01,2013-02-07 12:24:00,
2013-02-07 07:29:00,45.9,28.8,30.03,North,-999,-999.0,0.0,51,0.00,,---,0.00,VWS V14.01,2013-02-07 12:29:00,
2013-02-07 07:34:00,46.1,29.0,30.03,North,-999,-999.0,0.0,51,0.00,,---,0.00,VWS V14.01,2013-02-07 12:34:00,
2013-02-07 07:39:00,46.1,29.0,30.03,North,-999,-999.0,0.0,51,0.00,,---,0.00,VWS V14.01,2013-02-07 12:39:00,
2013-02-07 07:44:00,46.1,29.0,30.03,North,-999,-999.0,0.0,51,0.00,,---,0.00,VWS V14.01,2013-02-07 12:44:00,
2013-02-07 07:49:00,46.1,29.0,30.03,North,-999,-999.0,0.0,51,0.00,,---,0.00,VWS V14.01,2013-02-07 12:49:00,
2013-02-07 07:55:00,46.1,29.0,30.03,North,-999,-999.0,0.0,51,0.00,,---,0.00,VWS V14.01,2013-02-07 12:55:00,
2013-02-07 08:00:00,46.3,29.2,30.03,North,-999,-999.0,0.0,51,0.00,,---,0.00,VWS V14.01,2013-02-07 13:00:00,
2013-02-07 08:06:00,46.3,29.6,30.03,North,-999,-999.0,0.0,52,0.00,,---,0.00,VWS V14.01,2013-02-07 13:06:00,
2013-02-07 08:11:00,46.4,29.8,30.04,North,-999,-999.0,0.0,52,0.00,,---,0.00,VWS V14.01,2013-02-07 13:11:00,
2013-02-07 08:16:00,46.4,29.8,30.03,North,-999,-999.0,0.0,52,0.00,,---,0.00,VWS V14.01,2013-02-07 13:16:00,
2013-02-07 08:21:00,46.4,29.8,30.04,North,-999,-999.0,0.0,52,0.00,,---,0.00,VWS V14.01,2013-02-07 13:21:00,
2013-02-07 08:26:00,46.4,29.8,30.04,North,-999,-999.0,0.0,52,0.00,,---,0.00,VWS V14.01,2013-02-07 13:26:00,
2013-02-07 08:31:00,46.4,29.8,30.04,North,-999,-999.0,0.0,52,0.00,,---,0.00,VWS V14.01,2013-02-07 13:31:00,
2013-02-07 08:36:00,46.4,29.8,30.04,North,-999,-999.0,0.0,52,0.00,,---,0.00,VWS V14.01,2013-02-07 13:36:00,
2013-02-07 08:41:00,46.6,30.4,30.04,North,-999,-999.0,0.0,53,0.00,,---,0.00,VWS V14.01,2013-02-07 13:41:00,
2013-02-07 08:46:00,46.6,30.4,30.04,North,-999,-999.0,0.0,53,0.00,,---,0.00,VWS V14.01,2013-02-07 13:46:00,
2013-02-07 08:51:00,46.6,30.4,30.03,North,-999,-999.0,0.0,53,0.00,,---,0.00,VWS V14.01,2013-02-07 13:51:00,
2013-02-07 08:56:00,46.8,30.6,30.03,North,-999,-999.0,0.0,53,0.00,,---,0.00,VWS V14.01,2013-02-07 13:56:00,
2013-02-07 09:02:00,46.8,30.6,30.03,North,-999,-999.0,0.0,53,0.00,,---,0.00,VWS V14.01,2013-02-07 14:02:00,
2013-02-07 09:07:00,46.8,30.6,30.03,North,-999,-999.0,0.0,53,0.00,,---,0.00,VWS V14.01,2013-02-07 14:07:00,
2013-02-07 09:12:00,46.8,30.6,30.03,North,-999,-999.0,0.0,53,0.00,,---,0.00,VWS V14.01,2013-02-07 14:12:00,
2013-02-07 09:17:00,47.0,30.8,30.03,North,-999,-999.0,0.0,53,0.00,,---,0.00,VWS V14.01,2013-02-07 14:17:00,
2013-02-07 09:22:00,47.2,31.0,30.03,North,-999,-999.0,0.0,53,0.00,,---,0.00,VWS V14.01,2013-02-07 14:22:00,
2013-02-07 09:27:00,47.2,31.0,30.03,North,-999,-999.0,0.0,53,0.00,,---,0.00,VWS V14.01,2013-02-07 14:27:00,
2013-02-07 09:32:00,47.5,31.2,30.03,North,-999,-999.0,0.0,53,0.00,,---,0.00,VWS V14.01,2013-02-07 14:32:00,
2013-02-07 09:37:00,47.5,31.2,30.03,North,-999,-999.0,0.0,53,0.00,,---,0.00,VWS V14.01,2013-02-07 14:37:00,
2013-02-07 09:42:00,47.5,31.2,30.03,North,-999,-999.0,0.0,53,0.00,,---,0.00,VWS V14.01,2013-02-07 14:42:00,
2013-02-07 09:47:00,47.5,31.2,30.03,North,-999,-999.0,0.0,53,0.00,,---,0.00,VWS V14.01,2013-02-07 14:47:00,
2013-02-07 09:52:00,47.5,31.2,30.03,North,-999,-999.0,0.0,53,0.00,,---,0.00,VWS V14.01,2013-02-07 14:52:00,
2013-02-07 09:57:00,47.7,31.4,30.03,North,-999,-999.0,0.0,53,0.00,,---,0.00,VWS V14.01,2013-02-07 14:57:00,
2013-02-07 10:03:00,47.9,31.6,30.03,North,-999,-999.0,0.0,53,0.00,,---,0.00,VWS V14.01,2013-02-07 15:03:00,
2013-02-07 10:08:00,47.9,31.6,30.03,North,-999,-999.0,0.0,53,0.00,,---,0.00,VWS V14.01,2013-02-07 15:08:00,
2013-02-07 10:13:00,47.9,32.1,30.03,North,-999,-999.0,0.0,54,0.00,,---,0.00,VWS V14.01,2013-02-07 15:13:00,
2013-02-07 10:18:00,47.9,32.1,30.03,North,-999,-999.0,0.0,54,0.00,,---,0.00,VWS V14.01,2013-02-07 15:18:00,
2013-02-07 10:23:00,47.9,32.1,30.03,North,-999,-999.0,0.0,54,0.00,,---,0.00,VWS V14.01,2013-02-07 15:23:00,
2013-02-07 10:28:00,47.9,32.1,30.03,North,-999,-999.0,0.0,54,0.00,,---,0.00,VWS V14.01,2013-02-07 15:28:00,
2013-02-07 10:33:00,47.9,32.5,30.03,North,-999,-999.0,0.0,55,0.00,,---,0.00,VWS V14.01,2013-02-07 15:33:00,
2013-02-07 10:38:00,47.9,33.0,30.02,North,-999,-999.0,0.0,56,0.00,,---,0.00,VWS V14.01,2013-02-07 15:38:00,
2013-02-07 10:43:00,47.7,32.8,30.01,North,-999,-999.0,0.0,56,0.00,,---,0.00,VWS V14.01,2013-02-07 15:43:00,
2013-02-07 10:48:00,47.7,33.2,30.01,North,-999,-999.0,0.0,57,0.00,,---,0.00,VWS V14.01,2013-02-07 15:48:00,
2013-02-07 10:53:00,47.5,33.5,30.01,North,-999,-999.0,0.0,58,0.00,,---,0.00,VWS V14.01,2013-02-07 15:53:00,
2013-02-07 10:58:00,47.5,33.9,30.01,North,-999,-999.0,0.0,59,0.00,,---,0.00,VWS V14.01,2013-02-07 15:58:00,
2013-02-07 11:03:00,47.7,34.1,30.01,North,-999,-999.0,0.0,59,0.00,,---,0.00,VWS V14.01,2013-02-07 16:03:00,
2013-02-07 11:09:00,47.9,34.3,30.01,North,-999,-999.0,0.0,59,0.00,,---,0.00,VWS V14.01,2013-02-07 16:09:00,
2013-02-07 11:14:00,47.9,34.7,30.00,North,-999,-999.0,0.0,60,0.00,,---,0.00,VWS V14.01,2013-02-07 16:14:00,
2013-02-07 11:19:00,47.5,34.7,30.00,North,-999,-999.0,0.0,61,0.00,,---,0.00,VWS V14.01,2013-02-07 16:19:00,
2013-02-07 11:24:00,47.5,35.1,30.00,North,-999,-999.0,0.0,62,0.00,,---,0.00,VWS V14.01,2013-02-07 16:24:00,
2013-02-07 11:29:00,47.5,35.5,30.00,North,-999,-999.0,0.0,63,0.00,,---,0.00,VWS V14.01,2013-02-07 16:29:00,
2013-02-07 11:34:00,47.2,35.7,30.00,North,-999,-999.0,0.0,64,0.00,,---,0.00,VWS V14.01,2013-02-07 16:34:00,
2013-02-07 11:39:00,47.2,35.7,29.99,North,-999,-999.0,0.0,64,0.00,,---,0.00,VWS V14.01,2013-02-07 16:39:00,
2013-02-07 11:44:00,47.0,36.2,29.99,North,-999,-999.0,0.0,66,0.00,,---,0.00,VWS V14.01,2013-02-07 16:44:00,
2013-02-07 11:49:00,46.8,36.4,29.99,North,-999,-999.0,0.0,67,0.00,,---,0.00,VWS V14.01,2013-02-07 16:49:00,
2013-02-07 11:54:00,46.6,36.2,29.99,North,-999,-999.0,0.0,67,0.00,,---,0.00,VWS V14.01,2013-02-07 16:54:00,
2013-02-07 11:59:00,46.4,37.2,29.98,North,-999,-999.0,0.0,70,0.00,,---,0.00,VWS V14.01,2013-02-07 16:59:00,
2013-02-07 12:05:00,46.3,36.7,29.98,North,-999,-999.0,0.0,69,0.00,,---,0.00,VWS V14.01,2013-02-07 17:05:00,
2013-02-07 12:10:00,46.3,37.1,29.98,North,-999,-999.0,0.0,70,0.00,,---,0.00,VWS V14.01,2013-02-07 17:10:00,
2013-02-07 12:15:00,46.4,37.2,29.98,North,-999,-999.0,0.0,70,0.00,,---,0.00,VWS V14.01,2013-02-07 17:15:00,
2013-02-07 12:20:00,46.4,37.5,29.98,North,-999,-999.0,0.0,71,0.00,,---,0.00,VWS V14.01,2013-02-07 17:20:00,
2013-02-07 12:25:00,46.4,37.5,29.98,North,-999,-999.0,0.0,71,0.00,,---,0.00,VWS V14.01,2013-02-07 17:25:00,
2013-02-07 12:30:00,46.4,37.9,29.98,North,-999,-999.0,0.0,72,0.00,,---,0.00,VWS V14.01,2013-02-07 17:30:00,
2013-02-07 12:35:00,46.4,37.2,29.98,North,-999,-999.0,0.0,70,0.00,,---,0.00,VWS V14.01,2013-02-07 17:35:00,
2013-02-07 12:40:00,46.4,37.9,29.98,North,-999,-999.0,0.0,72,0.00,,---,0.00,VWS V14.01,2013-02-07 17:40:00,
2013-02-07 12:45:00,45.9,37.4,29.98,North,-999,-999.0,0.0,72,0.00,,---,0.00,VWS V14.01,2013-02-07 17:45:00,
2013-02-07 12:50:00,46.1,37.9,29.98,North,-999,-999.0,0.0,73,0.00,,---,0.00,VWS V14.01,2013-02-07 17:50:00,
2013-02-07 12:55:00,45.7,37.9,29.98,North,-999,-999.0,0.0,74,0.01,,---,0.01,VWS V14.01,2013-02-07 17:55:00,
2013-02-07 13:01:00,45.5,37.4,29.98,North,-999,-999.0,0.0,73,0.01,,---,0.01,VWS V14.01,2013-02-07 18:01:00,
2013-02-07 13:06:00,45.5,38.0,29.98,North,-999,-999.0,0.0,75,0.01,,---,0.01,VWS V14.01,2013-02-07 18:06:00,
2013-02-07 13:11:00,45.5,37.7,29.97,North,-999,-999.0,0.0,74,0.01,,---,0.01,VWS V14.01,2013-02-07 18:11:00,
2013-02-07 13:16:00,45.5,38.4,29.97,North,-999,-999.0,0.0,76,0.01,,---,0.01,VWS V14.01,2013-02-07 18:16:00,
2013-02-07 13:21:00,45.0,37.6,29.97,North,-999,-999.0,0.0,75,0.01,,---,0.01,VWS V14.01,2013-02-07 18:21:00,
2013-02-07 13:26:00,44.8,37.7,29.96,North,-999,-999.0,0.0,76,0.01,,---,0.01,VWS V14.01,2013-02-07 18:26:00,
2013-02-07 13:31:00,44.8,38.0,29.95,North,-999,-999.0,0.0,77,0.01,,---,0.01,VWS V14.01,2013-02-07 18:31:00,
2013-02-07 13:36:00,44.6,38.2,29.95,North,-999,-999.0,0.0,78,0.01,,---,0.01,VWS V14.01,2013-02-07 18:36:00,
2013-02-07 13:41:00,44.6,37.8,29.95,North,-999,-999.0,0.0,77,0.01,,---,0.01,VWS V14.01,2013-02-07 18:41:00,
2013-02-07 13:46:00,44.6,38.2,29.95,North,-999,-999.0,0.0,78,0.01,,---,0.01,VWS V14.01,2013-02-07 18:46:00,
2013-02-07 13:51:00,44.5,38.4,29.95,North,-999,-999.0,0.0,79,0.02,,---,0.02,VWS V14.01,2013-02-07 18:51:00,
2013-02-07 13:57:00,44.5,38.4,29.95,North,-999,-999.0,0.0,79,0.01,,---,0.02,VWS V14.01,2013-02-07 18:57:00,
2013-02-07 14:02:00,44.5,38.7,29.95,North,-999,-999.0,0.0,80,0.01,,---,0.02,VWS V14.01,2013-02-07 19:02:00,
2013-02-07 14:07:00,44.3,37.9,29.95,North,-999,-999.0,0.0,78,0.01,,---,0.02,VWS V14.01,2013-02-07 19:07:00,
2013-02-07 14:12:00,44.3,38.5,29.95,North,-999,-999.0,0.0,80,0.01,,---,0.02,VWS V14.01,2013-02-07 19:12:00,
2013-02-07 14:17:00,44.1,38.0,29.94,North,-999,-999.0,0.0,79,0.01,,---,0.02,VWS V14.01,2013-02-07 19:17:00,
2013-02-07 14:22:00,43.9,38.1,29.94,North,-999,-999.0,0.0,80,0.01,,---,0.02,VWS V14.01,2013-02-07 19:22:00,
2013-02-07 14:27:00,43.6,38.2,29.94,North,-999,-999.0,0.0,81,0.02,,---,0.03,VWS V14.01,2013-02-07 19:27:00,
2013-02-07 14:32:00,43.6,38.5,29.93,North,-999,-999.0,0.0,82,0.02,,---,0.03,VWS V14.01,2013-02-07 19:32:00,
2013-02-07 14:37:00,43.4,38.0,29.93,North,-999,-999.0,0.0,81,0.02,,---,0.03,VWS V14.01,2013-02-07 19:37:00,
2013-02-07 14:42:00,43.2,38.1,29.92,North,-999,-999.0,0.0,82,0.02,,---,0.03,VWS V14.01,2013-02-07 19:42:00,
2013-02-07 14:47:00,43.2,38.1,29.92,North,-999,-999.0,0.0,82,0.03,,---,0.04,VWS V14.01,2013-02-07 19:47:00,
2013-02-07 14:52:00,43.2,38.4,29.92,North,-999,-999.0,0.0,83,0.02,,---,0.04,VWS V14.01,2013-02-07 19:52:00,
2013-02-07 14:57:00,43.0,38.8,29.92,North,-999,-999.0,0.0,85,0.02,,---,0.04,VWS V14.01,2013-02-07 19:57:00,
2013-02-07 15:03:00,42.8,38.3,29.92,North,-999,-999.0,0.0,84,0.03,,---,0.05,VWS V14.01,2013-02-07 20:03:00,
2013-02-07 15:08:00,42.8,38.6,29.92,North,-999,-999.0,0.0,85,0.03,,---,0.05,VWS V14.01,2013-02-07 20:08:00,
2013-02-07 15:13:00,42.8,38.3,29.92,North,-999,-999.0,0.0,84,0.04,,---,0.06,VWS V14.01,2013-02-07 20:13:00,
2013-02-07 15:18:00,42.8,38.9,29.92,North,-999,-999.0,0.0,86,0.04,,---,0.06,VWS V14.01,2013-02-07 20:18:00,
2013-02-07 15:23:00,42.8,38.9,29.92,North,-999,-999.0,0.0,86,0.05,,---,0.07,VWS V14.01,2013-02-07 20:23:00,
2013-02-07 15:28:00,42.7,38.8,29.91,North,-999,-999.0,0.0,86,0.04,,---,0.07,VWS V14.01,2013-02-07 20:28:00,
2013-02-07 15:33:00,42.7,38.5,29.91,North,-999,-999.0,0.0,85,0.04,,---,0.07,VWS V14.01,2013-02-07 20:33:00,
2013-02-07 15:38:00,42.7,38.5,29.91,North,-999,-999.0,0.0,85,0.05,,---,0.08,VWS V14.01,2013-02-07 20:38:00,
2013-02-07 15:43:00,42.7,38.8,29.90,North,-999,-999.0,0.0,86,0.05,,---,0.08,VWS V14.01,2013-02-07 20:43:00,
2013-02-07 15:48:00,42.7,38.8,29.90,North,-999,-999.0,0.0,86,0.04,,---,0.08,VWS V14.01,2013-02-07 20:48:00,
2013-02-07 15:53:00,42.7,38.8,29.90,North,-999,-999.0,0.0,86,0.05,,---,0.09,VWS V14.01,2013-02-07 20:53:00,
2013-02-07 15:58:00,42.5,38.6,29.90,North,-999,-999.0,0.0,86,0.05,,---,0.09,VWS V14.01,2013-02-07 20:58:00,
2013-02-07 16:03:00,42.7,39.1,29.90,North,-999,-999.0,0.0,87,0.04,,---,0.09,VWS V14.01,2013-02-07 21:03:00,
2013-02-07 16:09:00,42.7,39.1,29.89,North,-999,-999.0,0.0,87,0.04,,---,0.09,VWS V14.01,2013-02-07 21:09:00,
2013-02-07 16:14:00,42.7,39.1,29.89,North,-999,-999.0,0.0,87,0.04,,---,0.10,VWS V14.01,2013-02-07 21:14:00,
2013-02-07 16:19:00,42.5,38.9,29.89,North,-999,-999.0,0.0,87,0.04,,---,0.10,VWS V14.01,2013-02-07 21:19:00,
2013-02-07 16:24:00,42.7,39.1,29.89,North,-999,-999.0,0.0,87,0.03,,---,0.10,VWS V14.01,2013-02-07 21:24:00,
2013-02-07 16:29:00,42.7,39.1,29.89,North,-999,-999.0,0.0,87,0.03,,---,0.10,VWS V14.01,2013-02-07 21:29:00,
2013-02-07 16:34:00,42.7,39.1,29.88,North,-999,-999.0,0.0,87,0.03,,---,0.10,VWS V14.01,2013-02-07 21:34:00,
2013-02-07 16:39:00,42.7,39.1,29.88,North,-999,-999.0,0.0,87,0.03,,---,0.11,VWS V14.01,2013-02-07 21:39:00,
2013-02-07 16:44:00,42.5,38.9,29.88,North,-999,-999.0,0.0,87,0.03,,---,0.11,VWS V14.01,2013-02-07 21:44:00,
2013-02-07 16:49:00,42.5,38.9,29.87,North,-999,-999.0,0.0,87,0.03,,---,0.11,VWS V14.01,2013-02-07 21:49:00,
2013-02-07 16:54:00,42.5,38.9,29.87,North,-999,-999.0,0.0,87,0.02,,---,0.11,VWS V14.01,2013-02-07 21:54:00,
2013-02-07 16:59:00,42.5,39.2,29.86,North,-999,-999.0,0.0,88,0.02,,---,0.11,VWS V14.01,2013-02-07 21:59:00,
2013-02-07 17:04:00,42.5,39.2,29.86,North,-999,-999.0,0.0,88,0.03,,---,0.12,VWS V14.01,2013-02-07 22:04:00,
2013-02-07 17:10:00,42.5,38.9,29.85,North,-999,-999.0,0.0,87,0.04,,---,0.13,VWS V14.01,2013-02-07 22:10:00,
2013-02-07 17:15:00,42.5,39.2,29.85,North,-999,-999.0,0.0,88,0.03,,---,0.13,VWS V14.01,2013-02-07 22:15:00,
2013-02-07 17:20:00,42.5,39.2,29.85,North,-999,-999.0,0.0,88,0.03,,---,0.13,VWS V14.01,2013-02-07 22:20:00,
2013-02-07 17:25:00,42.5,39.2,29.85,North,-999,-999.0,0.0,88,0.04,,---,0.14,VWS V14.01,2013-02-07 22:25:00,
2013-02-07 17:30:00,42.5,39.2,29.85,North,-999,-999.0,0.0,88,0.04,,---,0.14,VWS V14.01,2013-02-07 22:30:00,
2013-02-07 17:35:00,42.5,38.9,29.85,North,-999,-999.0,0.0,87,0.05,,---,0.15,VWS V14.01,2013-02-07 22:35:00,
2013-02-07 17:40:00,42.5,38.9,29.85,North,-999,-999.0,0.0,87,0.04,,---,0.15,VWS V14.01,2013-02-07 22:40:00,
2013-02-07 17:45:00,42.5,39.5,29.85,North,-999,-999.0,0.0,89,0.04,,---,0.15,VWS V14.01,2013-02-07 22:45:00,
2013-02-07 17:50:00,42.5,39.5,29.85,North,-999,-999.0,0.0,89,0.04,,---,0.15,VWS V14.01,2013-02-07 22:50:00,
2013-02-07 17:55:00,42.5,39.2,29.85,North,-999,-999.0,0.0,88,0.05,,---,0.17,VWS V14.01,2013-02-07 22:55:00,
2013-02-07 18:01:00,42.5,39.2,29.85,North,-999,-999.0,0.0,88,0.05,,---,0.17,VWS V14.01,2013-02-07 23:01:00,
2013-02-07 18:06:00,42.5,39.5,29.85,North,-999,-999.0,0.0,89,0.05,,---,0.17,VWS V14.01,2013-02-07 23:06:00,
2013-02-07 18:11:00,42.5,39.5,29.85,North,-999,-999.0,0.0,89,0.04,,---,0.17,VWS V14.01,2013-02-07 23:11:00,
2013-02-07 18:16:00,42.5,39.5,29.85,North,-999,-999.0,0.0,89,0.05,,---,0.19,VWS V14.01,2013-02-07 23:16:00,
2013-02-07 18:21:00,42.5,39.5,29.85,North,-999,-999.0,0.0,89,0.05,,---,0.19,VWS V14.01,2013-02-07 23:21:00,
2013-02-07 18:26:00,42.5,39.5,29.85,North,-999,-999.0,0.0,89,0.05,,---,0.19,VWS V14.01,2013-02-07 23:26:00,
2013-02-07 18:31:00,42.3,39.3,29.86,North,-999,-999.0,0.0,89,0.05,,---,0.19,VWS V14.01,2013-02-07 23:31:00,
2013-02-07 18:36:00,42.5,39.2,29.85,North,-999,-999.0,0.0,88,0.05,,---,0.20,VWS V14.01,2013-02-07 23:36:00,
2013-02-07 18:41:00,42.5,39.5,29.86,North,-999,-999.0,0.0,89,0.05,,---,0.20,VWS V14.01,2013-02-07 23:41:00,
2013-02-07 18:46:00,42.5,39.5,29.85,North,-999,-999.0,0.0,89,0.06,,---,0.22,VWS V14.01,2013-02-07 23:46:00,
2013-02-07 18:51:00,42.5,39.5,29.85,North,-999,-999.0,0.0,89,0.07,,---,0.22,VWS V14.01,2013-02-07 23:51:00,
2013-02-07 18:56:00,42.5,39.5,29.85,North,-999,-999.0,0.0,89,0.06,,---,0.22,VWS V14.01,2013-02-07 23:56:00,
2013-02-07 19:02:00,42.5,39.5,29.85,North,-999,-999.0,0.0,89,0.07,,---,0.24,VWS V14.01,2013-02-08 00:02:00,
2013-02-07 19:07:00,42.5,39.5,29.85,North,-999,-999.0,0.0,89,0.07,,---,0.24,VWS V14.01,2013-02-08 00:07:00,
2013-02-07 19:12:00,42.5,39.5,29.85,North,-999,-999.0,0.0,89,0.07,,---,0.24,VWS V14.01,2013-02-08 00:12:00,
2013-02-07 19:17:00,42.5,39.5,29.85,North,-999,-999.0,0.0,89,0.07,,---,0.26,VWS V14.01,2013-02-08 00:17:00,
2013-02-07 19:22:00,42.5,39.5,29.84,North,-999,-999.0,0.0,89,0.07,,---,0.26,VWS V14.01,2013-02-08 00:22:00,
2013-02-07 19:27:00,42.5,39.8,29.84,North,-999,-999.0,0.0,90,0.07,,---,0.26,VWS V14.01,2013-02-08 00:27:00,
2013-02-07 19:32:00,42.5,39.8,29.84,North,-999,-999.0,0.0,90,0.08,,---,0.28,VWS V14.01,2013-02-08 00:32:00,
2013-02-07 19:37:00,42.5,39.8,29.84,North,-999,-999.0,0.0,90,0.08,,---,0.29,VWS V14.01,2013-02-08 00:37:00,
2013-02-07 19:42:00,42.5,39.5,29.85,North,-999,-999.0,0.0,89,0.08,,---,0.29,VWS V14.01,2013-02-08 00:42:00,
2013-02-07 19:47:00,42.5,39.8,29.85,North,-999,-999.0,0.0,90,0.08,,---,0.30,VWS V14.01,2013-02-08 00:47:00,
2013-02-07 19:52:00,42.5,39.8,29.84,North,-999,-999.0,0.0,90,0.08,,---,0.31,VWS V14.01,2013-02-08 00:52:00,
2013-02-07 19:57:00,42.5,39.8,29.85,North,-999,-999.0,0.0,90,0.09,,---,0.31,VWS V14.01,2013-02-08 00:57:00,
2013-02-07 20:02:00,42.3,39.6,29.85,North,-999,-999.0,0.0,90,0.09,,---,0.33,VWS V14.01,2013-02-08 01:02:00,
2013-02-07 20:08:00,42.3,39.6,29.84,North,-999,-999.0,0.0,90,0.09,,---,0.33,VWS V14.01,2013-02-08 01:08:00,
2013-02-07 20:13:00,42.3,39.6,29.84,North,-999,-999.0,0.0,90,0.09,,---,0.33,VWS V14.01,2013-02-08 01:13:00,
2013-02-07 20:18:00,42.1,39.4,29.84,North,-999,-999.0,0.0,90,0.09,,---,0.35,VWS V14.01,2013-02-08 01:18:00,
2013-02-07 20:23:00,42.1,39.4,29.84,North,-999,-999.0,0.0,90,0.10,,---,0.36,VWS V14.01,2013-02-08 01:23:00,
2013-02-07 20:28:00,42.1,39.4,29.84,North,-999,-999.0,0.0,90,0.10,,---,0.37,VWS V14.01,2013-02-08 01:28:00,
2013-02-07 20:33:00,42.1,39.4,29.84,North,-999,-999.0,0.0,90,0.10,,---,0.38,VWS V14.01,2013-02-08 01:33:00,
2013-02-07 20:38:00,42.1,39.4,29.83,North,-999,-999.0,0.0,90,0.10,,---,0.39,VWS V14.01,2013-02-08 01:38:00,
2013-02-07 20:43:00,41.9,39.2,29.83,North,-999,-999.0,0.0,90,0.11,,---,0.40,VWS V14.01,2013-02-08 01:43:00,
2013-02-07 20:48:00,41.9,39.2,29.83,North,-999,-999.0,0.0,90,0.10,,---,0.40,VWS V14.01,2013-02-08 01:48:00,
2013-02-07 20:53:00,41.9,39.2,29.83,North,-999,-999.0,0.0,90,0.11,,---,0.42,VWS V14.01,2013-02-08 01:53:00,
2013-02-07 20:58:00,41.9,39.2,29.83,North,-999,-999.0,0.0,90,0.10,,---,0.42,VWS V14.01,2013-02-08 01:58:00,
2013-02-07 21:03:00,41.9,39.2,29.83,North,-999,-999.0,0.0,90,0.10,,---,0.43,VWS V14.01,2013-02-08 02:03:00,
2013-02-07 21:09:00,41.9,39.2,29.83,North,-999,-999.0,0.0,90,0.11,,---,0.45,VWS V14.01,2013-02-08 02:09:00,
2013-02-07 21:14:00,41.8,39.1,29.83,North,-999,-999.0,0.0,90,0.11,,---,0.45,VWS V14.01,2013-02-08 02:14:00,
2013-02-07 21:19:00,41.8,39.1,29.83,North,-999,-999.0,0.0,90,0.11,,---,0.46,VWS V14.01,2013-02-08 02:19:00,
2013-02-07 21:24:00,41.8,39.1,29.83,North,-999,-999.0,0.0,90,0.10,,---,0.46,VWS V14.01,2013-02-08 02:24:00,
2013-02-07 21:29:00,41.8,39.1,29.82,North,-999,-999.0,0.0,90,0.09,,---,0.46,VWS V14.01,2013-02-08 02:29:00,
2013-02-07 21:34:00,41.8,39.1,29.82,North,-999,-999.0,0.0,90,0.08,,---,0.46,VWS V14.01,2013-02-08 02:34:00,
2013-02-07 21:39:00,41.8,39.4,29.82,North,-999,-999.0,0.0,91,0.07,,---,0.46,VWS V14.01,2013-02-08 02:39:00,
2013-02-07 21:44:00,41.8,39.1,29.82,North,-999,-999.0,0.0,90,0.06,,---,0.46,VWS V14.01,2013-02-08 02:44:00,
2013-02-07 21:49:00,41.8,39.4,29.82,North,-999,-999.0,0.0,91,0.06,,---,0.46,VWS V14.01,2013-02-08 02:49:00,
2013-02-07 21:54:00,41.8,39.1,29.82,North,-999,-999.0,0.0,90,0.04,,---,0.46,VWS V14.01,2013-02-08 02:54:00,
2013-02-07 21:59:00,41.8,39.1,29.83,North,-999,-999.0,0.0,90,0.04,,---,0.46,VWS V14.01,2013-02-08 02:59:00,
2013-02-07 22:05:00,41.8,39.1,29.83,North,-999,-999.0,0.0,90,0.02,,---,0.46,VWS V14.01,2013-02-08 03:05:00,
2013-02-07 22:10:00,41.8,39.1,29.82,North,-999,-999.0,0.0,90,0.01,,---,0.46,VWS V14.01,2013-02-08 03:10:00,
2013-02-07 22:15:00,41.8,39.1,29.82,North,-999,-999.0,0.0,90,0.01,,---,0.46,VWS V14.01,2013-02-08 03:15:00,
2013-02-07 22:20:00,41.8,39.1,29.82,North,-999,-999.0,0.0,90,0.00,,---,0.46,VWS V14.01,2013-02-08 03:20:00,
2013-02-07 22:25:00,41.8,39.1,29.82,North,-999,-999.0,0.0,90,0.00,,---,0.46,VWS V14.01,2013-02-08 03:25:00,
2013-02-07 22:30:00,41.8,39.1,29.82,North,-999,-999.0,0.0,90,0.00,,---,0.46,VWS V14.01,2013-02-08 03:30:00,
2013-02-07 22:35:00,41.8,39.1,29.82,North,-999,-999.0,0.0,90,0.00,,---,0.46,VWS V14.01,2013-02-08 03:35:00,
2013-02-07 22:40:00,41.8,39.1,29.82,North,-999,-999.0,0.0,90,0.00,,---,0.46,VWS V14.01,2013-02-08 03:40:00,
2013-02-07 22:45:00,41.8,39.1,29.82,North,-999,-999.0,0.0,90,0.00,,---,0.46,VWS V14.01,2013-02-08 03:45:00,
2013-02-07 22:50:00,41.8,39.1,29.81,North,-999,-999.0,0.0,90,0.00,,---,0.46,VWS V14.01,2013-02-08 03:50:00,
2013-02-07 22:55:00,41.9,39.2,29.81,North,-999,-999.0,0.0,90,0.00,,---,0.46,VWS V14.01,2013-02-08 03:55:00,
2013-02-07 23:01:00,41.9,39.2,29.81,North,-999,-999.0,0.0,90,0.00,,---,0.46,VWS V14.01,2013-02-08 04:01:00,
2013-02-07 23:06:00,41.9,39.2,29.80,North,-999,-999.0,0.0,90,0.00,,---,0.46,VWS V14.01,2013-02-08 04:06:00,
2013-02-07 23:11:00,42.1,39.4,29.80,North,-999,-999.0,0.0,90,0.00,,---,0.46,VWS V14.01,2013-02-08 04:11:00,
2013-02-07 23:16:00,42.1,39.4,29.80,North,-999,-999.0,0.0,90,0.00,,---,0.46,VWS V14.01,2013-02-08 04:16:00,
2013-02-07 23:21:00,42.1,39.4,29.80,North,-999,-999.0,0.0,90,0.00,,---,0.46,VWS V14.01,2013-02-08 04:21:00,
2013-02-07 23:26:00,42.1,39.4,29.80,North,-999,-999.0,0.0,90,0.00,,---,0.46,VWS V14.01,2013-02-08 04:26:00,
2013-02-07 23:31:00,42.1,39.4,29.80,North,-999,-999.0,0.0,90,0.00,,---,0.46,VWS V14.01,2013-02-08 04:31:00,
2013-02-07 23:36:00,42.1,39.4,29.80,North,-999,-999.0,0.0,90,0.00,,---,0.46,VWS V14.01,2013-02-08 04:36:00,
2013-02-07 23:41:00,42.1,39.4,29.80,North,-999,-999.0,0.0,90,0.00,,---,0.46,VWS V14.01,2013-02-08 04:41:00,
2013-02-07 23:46:00,42.3,39.6,29.80,North,-999,-999.0,0.0,90,0.00,,---,0.46,VWS V14.01,2013-02-08 04:46:00,
2013-02-07 23:51:00,42.3,39.6,29.79,North,-999,-999.0,0.0,90,0.00,,---,0.46,VWS V14.01,2013-02-08 04:51:00,
2013-02-07 23:56:00,42.3,39.6,29.79,North,-999,-999.0,0.0,90,0.00,,---,0.46,VWS V14.01,2013-02-08 04:56:00,